This demonstration page uses our WeatherBlox Daily Observations layout. Learn more.

Left ArrowRight Arrow

41.55636, -103.73856

Hourly Observations for July 29, 2018

Temp ( °F °C ) Dew Point ( °F °C ) Humidity (%) Winds ( mph kmh ) Pressure ( in mb ) Visibility ( mi km ) Precip ( " mm )
12:58 am 00:58 Mostly Cloudy 55 12.9 54 12.3 96 96 ESE 6 9 30.12 1020 10 16 N/A
1:58 am 01:58 Mostly Cloudy with Mist and Fog 56 13.2 55 12.6 96 96 N N/A 30.12 1020 6 10 N/A
2:58 am 02:58 Cloudy with Strong Thunderstorms 56 13.5 55 13 97 97 SSE 5 7 30.12 1020 5 8 0.06 1.52
3:58 am 03:58 Mostly Cloudy 56 13.5 55 12.9 96 96 WSW 9 15 30.11 1020 10 16 N/A
4:58 am 04:58 Mostly Clear 54 12.2 52 11 92 92 N 5 7 30.14 1021 10 16 N/A
5:58 am 05:58 Mostly Cloudy with Fog 55 12.6 54 12.1 97 97 NE 6 9 30.16 1021 3 5 N/A
6:58 am 06:58 Mostly Cloudy with Fog 55 12.8 54 12.3 97 97 NNW 6 9 30.16 1021 1 2 N/A
7:58 am 07:58 Mostly Cloudy 57 13.7 56 13.2 97 97 N 6 9 30.16 1021 7 11 N/A
8:58 am 08:58 Mostly Cloudy 59 14.8 57 13.8 94 94 WNW 5 7 30.17 1022 10 16 N/A
9:58 am 09:58 Partly Cloudy 64 17.9 56 13.3 75 75 N N/A 30.15 1021 10 16 N/A
10:58 am 10:58 Mostly Cloudy 65 18.2 59 14.9 81 81 E 10 17 30.14 1021 10 16 N/A
11:58 am 11:58 Mostly Cloudy 66 19.1 59 14.9 77 77 SE 10 17 30.14 1021 10 16 N/A
12:58 pm 12:58 Mostly Cloudy 68 20 59 15 73 73 SE 13 20 30.13 1020 10 16 N/A
1:58 pm 13:58 Mostly Cloudy 66 18.8 57 13.9 73 73 SSE 14 22 30.09 1019 10 16 N/A
2:58 pm 14:58 Cloudy with Thunderstorms 62 16.9 59 15.1 89 89 NNE 7 11 30.16 1021 10 16 0.01 0.25
3:58 pm 15:58 Mostly Sunny 65 18.2 61 16.1 88 88 SE 18 30 30.09 1019 10 16 0.02 0.51
4:58 pm 16:58 Mostly Cloudy 63 17.4 58 14.3 82 82 E 16 26 30.11 1020 10 16 N/A
5:58 pm 17:58 Mostly Cloudy with Showers 61 16 56 13.3 84 84 ESE 16 26 30.10 1019 10 16 0.02 0.51
6:58 pm 18:58 Partly Cloudy with Nearby Thunderstorms 62 16.6 55 12.9 79 79 N N/A 30.18 1022 10 16 N/A
7:58 pm 19:58 Cloudy 56 13.6 54 12.3 92 92 N N/A 30.20 1023 10 16 0.24 6.10
8:58 pm 20:58 Mostly Cloudy 55 13 53 11.6 91 91 WNW 6 9 30.22 1023 10 16 N/A
9:58 pm 21:58 Mostly Cloudy 55 12.6 53 11.4 92 92 N 12 19 30.25 1024 10 16 N/A
10:58 pm 22:58 Mostly Cloudy 55 12.5 53 11.4 93 93 N 5 7 30.21 1023 10 16 N/A
11:58 pm 23:58 Mostly Cloudy 55 12.5 52 11 91 91 NW 6 9 30.22 1023 10 16 N/A

Powered by AerisWeather